This is the latest recevied weather packets stored in our database for station/object FW1079. If no packets are shown the sender has not sent any weather packets the latest 10 day(s).
| Time | Temp. | Humidity | Pressure | Rain* | Wind** | Luminosity | Snow |
|---|---|---|---|---|---|---|---|
| 1777391650 | 20° C | 51% | 1015 hPa | 0 mm | - | - | - |
| 1777391050 | 20° C | 51% | 1015 hPa | 0 mm | - | - | - |
| 1777390150 | 20.56° C | 53% | 1015 hPa | 0 mm | - | - | - |
| 1777386550 | 21.11° C | 57% | 1015 hPa | 0 mm | - | - | - |
| 1777384750 | 21.67° C | 55% | 1015 hPa | 0 mm | - | - | - |
| 1777384449 | 21.67° C | 55% | 1015 hPa | 0 mm | - | - | - |
| 1777382350 | 22.78° C | 51% | 1015 hPa | 0 mm | - | - | - |
| 1777381450 | 23.33° C | 51% | 1015 hPa | 0 mm | - | - | - |
| 1777380552 | 23.33° C | 48% | 1015 hPa | 0 mm | - | - | - |
| 1777378450 | 23.89° C | 51% | 1015 hPa | 0 mm | - | - | - |
| 1777376950 | 23.89° C | 49% | 1015 hPa | 0 mm | - | - | - |
| 1777374549 | 23.89° C | 53% | 1015 hPa | 0 mm | - | - | - |
| 1777374249 | 23.89° C | 53% | 1015 hPa | 0 mm | - | - | - |
| 1777373949 | 23.89° C | 52% | 1015 hPa | 0 mm | - | - | - |
| 1777370952 | 23.33° C | 57% | 1016 hPa | 0 mm | - | - | - |
| 1777370050 | 23.33° C | 56% | 1016 hPa | 0 mm | - | - | - |
| 1777369450 | 23.33° C | 54% | 1015 hPa | 0 mm | - | - | - |
| 1777367949 | 23.33° C | 55% | 1016 hPa | 0 mm | - | - | - |
| 1777366749 | 22.78° C | 56% | 1016 hPa | 0 mm | - | - | - |
| 1777366152 | 22.78° C | 55% | 1016 hPa | 0 mm | - | - | - |
| 1777364949 | 22.22° C | 55% | 1016 hPa | 0 mm | - | - | - |
| 1777364649 | 22.22° C | 55% | 1016 hPa | 0 mm | - | - | - |
| 1777362849 | 21.11° C | 55% | 1016 hPa | 0 mm | - | - | - |
| 1777362552 | 20.56° C | 54% | 1016 hPa | 0 mm | - | - | - |
| 1777362249 | 20.56° C | 52% | 1016 hPa | 0 mm | - | - | - |
* Rain latest hour (hover to see other rain measurements)
** Current wind speed in m/s (hover to see current wind gust speed)